Location: Tamazert
(32.6352°N, 5.2072°W)
Time: 21:19:12
(UTC+00:00)

Transit 2A Rocket - Pass Details

Date: 12 October 2022
Orbit: 589 x 911 km, 66.7° (Epoch: 28 November)

Event Time Altitude Azimuth Distance (km) Brightness Sun altitude
Rises 02:20:54 0° 171° (S) 2,861 - -50.0°
Reaches altitude 10° 02:23:42 10° 153° (SSE) 1,932 - -49.5°
Maximum altitude 02:26:44 19° 108° (ESE) 1,430 - -49.0°
Drops below altitude 10° 02:29:44 10° 63° (ENE) 1,915 - -48.4°
Sets 02:32:29 0° 45° (NE) 2,827 - -47.9°
